{"data":{"norad_id":58680,"epoch":"2026-09-20T22:08:11.802048Z","epoch_age_seconds":113205,"freshness":"FRESH","line1":"1 58680U 23211P   26263.92235882 -.00003040  00000+0 -10100-3 0  9997","line2":"2 58680  43.0010  62.6421 0001138 269.6626  90.4095 15.27582225153508","mean_motion":15.27582225,"eccentricity":0.0001138,"inclination_deg":43.001,"raan_deg":62.6421,"arg_perigee_deg":269.6626,"mean_anomaly_deg":90.4095,"bstar":-0.000101,"rev_number":15350,"period_min":94.266611409412,"perigee_km":482.26163137776,"apogee_km":483.82323581685,"semimajor_km":6861.1794335973,"source":"CELESTRAK","updated_at":"2026-09-21T09:00:33.944771Z"}}